Regional Weather Roundup
Issued by NWS

Home | Current Version | Previous Version | Graphics & Text | Print | Product List | Glossary On
Versions: 1 2 3 4 5 6 7 8 9 10 11 12 13 14 15 16 17 18 19 20 21 22 23 24 25 26 27 28 29 30 31 32 33 34 35 36 37 38 39 40 41 42 43 44 45 46 47 48 49 50
000
ASUS43 KDMX 251801
RWRIA

WEATHER ROUNDUP FOR IOWA
NATIONAL WEATHER SERVICE DES MOINES IA
100 PM CDT SUN JUN 25 2017

NOTE: "FAIR" INDICATES FEW OR NO CLOUDS BELOW 12,000 FEET WITH NO
SIGNIFICANT WEATHER AND/OR OBSTRUCTIONS TO VISIBILITY.

* - THESE STATIONS ARE NOT NWS STATIONS...THUS NOT UNDER NWS
QUALITY CONTROL.  THEY ALSO DO NOT REPORT WEATHER SUCH
AS PRECIPITATION OR FOG.

IAZ001>003-012>014-020>022-031>034-043>046-251900-
   NORTHWEST IOWA

CITY           SKY/WX    TMP DP  RH WIND       PRES   REMARKS
CARROLL *      MOSUNNY   70  43  37 NW22G28   30.26F
CHEROKEE *     SUNNY     66  44  43 NW17G23   30.27F
DENISON *      SUNNY     68  41  37 NW14G24   30.30F
LE MARS *      SUNNY     68  41  37 W15       30.29F
ORANGE CITY *  SUNNY     66  45  45 NW13G21   30.28F
SHELDON *      MOSUNNY   66  41  39 NW14G25   30.26F
SIOUX CITY     SUNNY     70  41  34 N17G23    30.28F
6HR MIN TEMP:  51; 6HR MAX TEMP:  70;

SPENCER        MOSUNNY   69  41  36 NW16G28   30.25F
6HR MIN TEMP:  51; 6HR MAX TEMP:  69;

STORM LAKE *     N/A     66  41  39 NW17G29   30.27F
$$

IAZ055>058-069>071-079>083-090>094-251900-
   SOUTHWEST IOWA

CITY           SKY/WX    TMP DP  RH WIND       PRES   REMARKS
ATLANTIC *     SUNNY     68  43  40 NW16G24   30.29S
AUDUBON *      SUNNY     68  43  40 NW14G20   30.29F
CLARINDA *     SUNNY     72  46  40 NW15G22   30.31F
COUNCIL BLFS * SUNNY     70  43  37 NW14      30.30F
CRESTON *      SUNNY     68  43  40 NW17G24   30.29F
HARLAN  *      SUNNY     66  43  42 NW12G17   30.32F
LAMONI         SUNNY     70  44  39 NW18      30.27F
6HR MIN TEMP:  54; 6HR MAX TEMP:  70;

RED OAK *      SUNNY     70  45  40 NW17      30.30F
SHENANDOAH *   MOSUNNY   70  46  43 NW10G17   30.31S
$$

IAZ047>049-059>061-072>074-084-251900-
   CENTRAL IOWA

CITY           SKY/WX    TMP DP  RH WIND       PRES   REMARKS
AMES           MOSUNNY   70  42  36 NW16G26   30.24F
6HR MIN TEMP:  54; 6HR MAX TEMP:  70;

ANKENY *       MOSUNNY   68  43  40 W18G30    30.25F
BOONE *        MOSUNNY   68  41  37 NW21G29   30.24S
CHARITON *     SUNNY     70  45  40 NW14G23   30.25F
DES MOINES     MOSUNNY   70  42  36 NW22G31   30.24F
6HR MIN TEMP:  55; 6HR MAX TEMP:  71;

GRINNELL*      MOSUNNY   68  44  41 NW24G31   30.23F
KNOXVILLE *    MOSUNNY   68  45  42 NW13G21   30.23F
MARSHALLTOWN   MOSUNNY   67  47  48 W16G25    30.21F
6HR MIN TEMP:  52; 6HR MAX TEMP:  67;

NEWTON *       MOSUNNY   68  45  42 NW21      30.23F
PELLA *        MOSUNNY   69  43  39 NW18G24   30.24F
PERRY *          N/A     68  41  36 NW12G21   30.26F
$$

IAZ004>006-015-016-023>025-035-036-251900-
   NORTH CENTRAL IOWA

CITY           SKY/WX    TMP DP  RH WIND       PRES   REMARKS
ALGONA *       MOSUNNY   66  39  37 NW21G31   30.23F
CLARION *        N/A     66  41  39 NW17G30   30.22F
ESTHERVILLE    MOSUNNY   65  44  46 N22G30    30.24F
6HR MIN TEMP:  51; 6HR MAX TEMP:  66;

FORT DODGE *   MOSUNNY   68  45  42 NW15G26   30.25F
MASON CITY     PTSUNNY   67  45  45 NW20      30.22S
6HR MIN TEMP:  50; 6HR MAX TEMP:  67;

FOREST CITY *  PTSUNNY   68  34  28 NW16G26   30.21F
WEBSTER CITY * SUNNY     68  43  40 NW20G28   30.22F
IOWA FALLS *     N/A     67  46  46 W23       30.23F
$$

IAZ007>011-017>019-026>030-037>042-050>054-066-251900-
   NORTHEAST IOWA

CITY           SKY/WX    TMP DP  RH WIND       PRES   REMARKS
CEDAR RAPIDS   PTSUNNY   65  51  60 NW18      30.19S
6HR MIN TEMP:  52; 6HR MAX TEMP:  66;

CHARLES CITY * CLOUDY    61  50  67 NW12G20   30.20S
CLINTON *      CLOUDY    66  49  54 W21       30.17R
DECORAH *        N/A     57  50  77 NW9G20    30.17S
DUBUQUE        CLOUDY    58  47  66 NW18      30.18S
6HR MIN TEMP:  52; 6HR MAX TEMP:  62;

MONTICELLO *   CLOUDY    61  48  63 W15G22    30.19R
OELWEIN *      PTSUNNY   61  50  67 W18G25    30.20S
WATERLOO       CLOUDY    64  47  53 NW16G24   30.19F
6HR MIN TEMP:  53; 6HR MAX TEMP:  64;

$$

IAZ064-065-067-068-078-251900-
   EAST CENTRAL IOWA

CITY           SKY/WX    TMP DP  RH WIND       PRES   REMARKS
DAVENPORT      CLOUDY    66  48  52 W21       30.18R
6HR MIN TEMP:  54; 6HR MAX TEMP:  67;

IOWA CITY      PTSUNNY   68  48  48 NW14G28   30.21S
6HR MIN TEMP:  55; 6HR MAX TEMP:  69;

MT. PLEASANT * PTSUNNY   68  43  40 W12G23    30.21F
MUSCATINE *    PTSUNNY   70  46  43 W16G23    30.20S
QUAD CITIES    CLOUDY    69  47  45 W20G30    30.17S
6HR MIN TEMP:  58; 6HR MAX TEMP:  70;

$$

IAZ062-063-075>077-085>089-095>099-251900-
   SOUTHEAST IOWA

CITY           SKY/WX    TMP DP  RH WIND       PRES   REMARKS
BURLINGTON     MOSUNNY   71  47  42 W10G22    30.20S
6HR MIN TEMP:  57; 6HR MAX TEMP:  72;

FAIRFIELD *    MOSUNNY   70  43  37 W17G23    30.22S
FORT MADISON * MOSUNNY   72  46  40 NW16G23   30.22S
KEOKUK *       PTSUNNY   70  46  43 NW13G22   30.21F
OSKALOOSA *    PTSUNNY   70  46  41 NW13G26   30.23F
OTTUMWA        PTSUNNY   72  44  36 NW16G29   30.23S
6HR MIN TEMP:  53; 6HR MAX TEMP:  72;

WASHINGTON *   PTSUNNY   70  46  43 NW18G26   30.22S
$$

ABBREVIATIONS USED IN REMARKS
   TC - TEMPERATURES IN CELSIUS
  WCI - WIND CHILL INDEX
   HX - HEAT INDEX
  VSB - VISIBILITY
$$





USA.gov is the U.S. government's official web portal to all federal, state and local government web resources and services.